Retour au catalogue

DODECAPOLE 2 DEB

ActifPO
NORAD 41734·DEBRIS·🇺🇸 United States

Lancé Aug 13, 1965 depuis Vandenberg Space Force Base

Loading…

Prochains Passages (prochaines 24 heures)

TLE

FraisSource: Space-Track

Époque: Sep 13, 2026, 20:37 UTC

1 41734U 65065U   26256.85949661  .00004347  00000-0  19348-2 0  9995
2 41734  90.0472  23.2415 0033312 179.1207 181.0049 14.22474075548926

Suivez DODECAPOLE 2 DEB en temps réel avec AllMySat

Download on the App Store